Flight Track Log - Related Links

Times and Time Zones

All times are in EST time to prevent confusion due to time zone crossing. See the N400PU flight status page for this flight to view local times or setup timezone preferences in your user account.

Time Position Orientation Groundspeed Altitude Reporting Facility
EST Latitude Longitude Course Direction KTS MPH feet Rate Location/Type
11:06 39.5231 -84.4056 270° West 144 166 1,300  Level Indianapolis Center
11:07 39.5231 -84.4300 270° West 178 205 2,400 1,129 Climbing Indianapolis Center
11:08 39.5694 -84.4778 322° Northwest 221 254 2,900 545 Climbing Indianapolis Center
11:09 39.6178 -84.5294 321° Northwest 216 249 3,500 1,091 Climbing Indianapolis Center
11:10 39.6442 -84.5903 299° West 199 229 5,100 1,694 Climbing Indianapolis Center
11:11 39.6728 -84.6561 299° West 214 246 7,000 2,112 Climbing Indianapolis Center
11:12 39.7061 -84.7294 301° West 228 262 9,500 2,341 Climbing Indianapolis Center
11:13 39.7394 -84.8019 301° West 231 266 11,800 1,220 Climbing Indianapolis Center
11:14 39.7731 -84.8931 296° West 266 306 12,000 98 Climbing Indianapolis Center
11:15 39.8064 -84.9972 293° West 309 356 12,000  Level Indianapolis Center
11:16 39.8417 -85.1047 293° West 319 367 12,000  Level Indianapolis Center
11:17 39.8769 -85.2133 293° West 322 371 12,000 -537 Level Indianapolis Center
11:18 39.9117 -85.3211 293° West 322 371 10,900 -976 Descending Indianapolis Center
11:19 39.9433 -85.4203 293° West 302 348 10,000 -439 Descending Indianapolis Center
11:20 39.9789 -85.5322 293° West 288 331 10,000  Level Indianapolis Center
11:21 40.0089 -85.6289 292° West 286 329 10,000  Level Indianapolis Center
11:22 40.0403 -85.7278 293° West 291 335 10,000  Level Indianapolis Center
11:23 40.0711 -85.8264 292° West 292 336 10,000  Level Indianapolis Center
11:24 40.1028 -85.9294 292° West 301 346 10,000  Level Indianapolis Center
11:25 40.1353 -86.0317 293° West 303 349 10,000 -98 Level Indianapolis Center
11:26 40.1672 -86.1308 293° West 299 344 9,800 -683 Descending Indianapolis Center
11:27 40.1969 -86.2056 298° West 254 292 8,600 -1,462 Descending Indianapolis Center
11:28 40.2289 -86.2933 296° West 247 284 6,900 -1,729 Descending Chicago Center
11:29 40.2583 -86.3761 295° West 242 278 5,200 -1,438 Descending Chicago Center
11:30 40.2872 -86.4511 297° West 243 280 4,000 -590 Descending Chicago Center
11:31 40.3164 -86.5289 296° West 231 266 4,000  Level Chicago Center
11:32 40.3411 -86.5986 295° West 215 247 4,000 -149 Level Chicago Center
11:33 40.3631 -86.6467 301° West 147 169 3,700 -492 Descending Chicago Center
11:34 40.3764 -86.6872 293° West 131 151 3,000 -347 Descending Chicago Center
11:35 40.3839 -86.7331 282° West 122 140 3,000  Level Chicago Center
11:36 40.3889 -86.7739 279° West 118 136 3,000 -298 Level Chicago Center
11:37 40.3939 -86.8147 279° West 113 130 2,400 -545 Descending Chicago Center
11:38 40.3989 -86.8497 281° West 104 120 1,900 -590 Descending Chicago Center
11:39 40.4019 -86.8906 276° West 107 123 1,200 -689 Descending Chicago Center

Login

Don't have an account? Register now (free) for customized features, flight alerts, and more!